This demonstration page uses our WeatherBlox Daily Observations layout. Learn more.

Left ArrowRight Arrow

41.12389, -100.76542

Hourly Observations for September 9, 2020

Temp ( °F °C ) Dew Point ( °F °C ) Humidity (%) Winds ( mph kmh ) Pressure ( in mb ) Visibility ( mi km ) Precip ( " mm )
12:46 am 00:46 Cloudy 40 4.4 33 0.6 77 77 N 13 20 30.43 1031 10 16 0.00 0.00
12:53 am 00:53 Cloudy 40 4.4 32 0 73 73 N 10 17 30.42 1030 10 16 0.00 0.00
1:15 am 01:15 Cloudy 40 4.4 33 0.6 77 77 N 12 19 30.47 1032 10 16 0.00 0.00
1:53 am 01:53 Cloudy 40 4.4 33 0.6 77 77 N 10 17 30.42 1030 10 16 0.00 0.00
2:26 am 02:26 Cloudy 40 4.4 33 0.6 77 77 N 10 17 30.44 1031 10 16 0.00 0.00
2:53 am 02:53 Cloudy 39 3.9 33 0.6 79 79 N 8 13 30.43 1031 10 16 0.00 0.00
3:53 am 03:53 Cloudy with Light Rain 39 3.9 33 0.6 79 79 N 8 13 30.42 1030 10 16 0.01 0.25
4:53 am 04:53 Cloudy 38 3.3 34 1.1 86 86 NW 5 7 30.46 1031 10 16 0.01 0.25
5:53 am 05:53 Cloudy with Light Rain 38 3.3 33 0.6 83 83 N 7 11 30.42 1030 10 16 0.01 0.25
6:53 am 06:53 Cloudy with Light Rain 38 3.3 34 1.1 86 86 N 9 15 30.42 1030 10 16 0.01 0.25
7:38 am 07:38 Cloudy with Light Rain 38 3.3 35 1.7 89 89 N 8 13 30.45 1031 10 16 0.04 1.02
7:49 am 07:49 Cloudy with Light Rain 37 3 36 2 93 93 N 8 13 30.45 1031 10 16 0.04 1.02
7:53 am 07:53 Cloudy with Light Rain 38 3.3 35 1.7 89 89 N 10 17 30.42 1030 10 16 0.04 1.02
8:20 am 08:20 Cloudy 38 3.3 34 1.1 86 86 N 9 15 30.45 1031 10 16 0.00 0.00
8:53 am 08:53 Cloudy 39 3.9 34 1.1 82 82 NNE 9 15 30.45 1031 10 16 0.00 0.00
9:27 am 09:27 Cloudy with Light Rain 40 4.4 35 1.7 83 83 NNE 13 20 30.47 1032 10 16 0.00 0.00
9:53 am 09:53 Cloudy 40 4.4 35 1.7 83 83 NE 9 15 30.46 1031 10 16 0.00 0.00
10:53 am 10:53 Cloudy 41 5 35 1.7 79 79 NNE 12 19 30.47 1032 10 16 0.00 0.00
11:02 am 11:02 Cloudy 41 5 35 1.7 79 79 NNE 9 15 30.49 1032 10 16 0.00 0.00
11:53 am 11:53 Cloudy with Light Rain 42 5.6 34 1.1 73 73 N 8 13 30.49 1032 10 16 0.00 0.00
12:53 pm 12:53 Cloudy 43 6.1 34 1.1 71 71 NE 9 15 30.48 1032 10 16 0.00 0.00
1:53 pm 13:53 Cloudy 45 7.2 34 1.1 66 66 N 8 13 30.46 1032 10 16 0.00 0.00
2:44 pm 14:44 Cloudy 46 7.8 35 1.7 66 66 N 8 13 30.45 1031 10 16 0.00 0.00
2:51 pm 14:51 Cloudy 46 8 36 2 66 66 N 8 13 30.44 1031 10 16 0.00 0.00
2:53 pm 14:53 Cloudy 47 8.3 35 1.7 63 63 N 8 13 30.45 1031 10 16 0.00 0.00
3:25 pm 15:25 Cloudy 47 8.3 34 1.1 61 61 NNE 10 17 30.42 1030 10 16 0.00 0.00
3:49 pm 15:49 Cloudy 46 8 34 1 62 62 NNE 12 19 30.42 1030 10 16 0.00 0.00
3:53 pm 15:53 Cloudy 47 8.3 34 1.1 61 61 NNE 9 15 30.43 1030 10 16 0.00 0.00
4:46 pm 16:46 Cloudy 48 8.9 34 1.1 58 58 N 8 13 30.41 1030 10 16 0.00 0.00
4:53 pm 16:53 Cloudy 47 8.3 34 1.1 61 61 N 12 19 30.43 1031 10 16 0.00 0.00
5:53 pm 17:53 Cloudy 48 8.9 34 1.1 58 58 NNE 8 13 30.44 1031 10 16 0.00 0.00
6:53 pm 18:53 Cloudy 48 8.9 34 1.1 58 58 NNE 5 7 30.42 1030 10 16 0.00 0.00
7:53 pm 19:53 Cloudy 47 8.3 35 1.7 63 63 NE 3 6 30.44 1031 10 16 0.00 0.00
8:53 pm 20:53 Cloudy 46 7.8 37 2.8 71 71 Calm 30.44 1031 10 16 0.00 0.00
9:53 pm 21:53 Cloudy 46 7.8 38 3.3 73 73 Calm 30.46 1032 10 16 0.00 0.00
10:53 pm 22:53 Cloudy 43 6.1 38 3.3 82 82 Calm 30.47 1032 10 16 0.00 0.00
11:53 pm 23:53 Cloudy 42 5.6 38 3.3 85 85 Calm 30.47 1032 10 16 0.00 0.00

Powered by AerisWeather